Regional Weather Roundup
Issued by NWS Kansas City/Pleasant Hill, MO

Home | Current Version | Previous Version | Text Only | Print | Product List | Glossary On
Versions: 1 2 3 4 5 6 7 8 9 10 11 12 13 14 15 16 17 18 19 20 21 22 23 24 25 26 27 28 29 30 31 32 33 34 35 36 37 38 39 40 41 42 43 44 45 46 47 48 49 50
000
ASUS43 KEAX 051711
RWREAX

WEATHER ROUNDUP FOR EASTERN KANSAS AND NORTHWEST MISSOURI
NATIONAL WEATHER SERVICE KANSAS CITY/PLEASANT HILL MO
1200 PM CDT TUE MAY 05 2015

KSZ040-057-103>105-MOZ028-029-037-043-051800-
...KANSAS CITY METROPOLITAN AREA...

CITY           SKY/WX    TMP DP  RH WIND       PRES   REMARKS
K.C. INTL      PTSUNNY   75  60  59 S10       30.11F
K.C. DOWNTOWN  MOSUNNY   77  59  53 S13       30.10F
LEES SUMMIT    MOSUNNY   76  57  51 S9        30.12F
OLATHE - IXD   PTSUNNY   77  58  51 S10       30.12F
OLATHE - OJC   MOSUNNY   76  59  55 S16G22    30.11F
LAWRENCE       PTSUNNY   76  58  53 S10       30.10F

$$

MOZ001>008-011>017-020>025-030>033-038>040-044>046-053-054-051800-
...NORTHERN AND CENTRAL MISSOURI...

CITY           SKY/WX    TMP DP  RH WIND       PRES   REMARKS
ST. JOSEPH     PTSUNNY   75  63  66 SW10      30.11S
MOSBY          PTSUNNY   77  59  53 S6G16     30.12S
WARRENSBURG    MOSUNNY   77  55  47 S13       30.13S
WHITEMAN AFB   SUNNY     80  59  49 SW18      30.12F
CLINTON        SUNNY     81  57  44 S8        30.14S
SEDALIA        SUNNY     80  56  43 SW12      30.15F
WARSAW         NOT AVBL
MARSHALL       SUNNY     82  57  42 S12G17    30.14F
CHILLICOTHE      N/A     76  63  64 S7        30.14S
MOBERLY        MOSUNNY   79  57  47 SW10      30.16F
KIRKSVILLE     MOSUNNY   77  62  59 SW10      30.15F

$$

MOZ041-047>049-056>058-063>065-088>090-097-051800-
...EASTERN AND SOUTHERN MISSOURI...

CITY           SKY/WX    TMP DP  RH WIND       PRES   REMARKS
ST. LOUIS INTL MOSUNNY   84  55  36 W10       30.18F
SPIRIT OF STL  MOSUNNY   81  57  43 SW7G16    30.16F
COLUMBIA       MOSUNNY   80  57  45 SW16      30.16F
JEFFERSON CITY MOSUNNY   81  57  43 S8        30.15F
MEXICO         SUNNY     81  61  50 SW12      30.16F
HANNIBAL       SUNNY     81  55  41 SW8       30.15F
ROLLA          PTSUNNY   78  58  49 SE9G20    30.17F
LEBANON        SUNNY     77  59  53 S8G18     30.18S
OSAGE BEACH    MOSUNNY   79  57  47 S10       30.16S
SPRINGFIELD    PTSUNNY   74  60  61 S12       30.16S
BRANSON        PTSUNNY   75  61  60 SE14G23   30.19S
NEVADA         MOSUNNY   79  57  47 S10       30.13F
JOPLIN         PTSUNNY   74  61  63 S14       30.13S
WEST PLAINS    MOSUNNY   75  58  55 S13G18    30.22F

$$

IAZ060-094-KSZ022-034>040-054-083-096-NEZ052-066-093-051800-
...KANSAS...SOUTHEAST NEBRASKA AND IOWA...

CITY           SKY/WX    TMP DP  RH WIND       PRES   REMARKS
TOPEKA         PTSUNNY   76  59  55 S10       30.09F
MANHATTAN      CLOUDY    74  59  59 S14G21    30.06S
EMPORIA        CLOUDY    74  57  55 S17G24    30.08S
CHANUTE        PTSUNNY   76  59  55 S14       30.09F
WICHITA        PTSUNNY   76  54  46 S22G32    30.03F
OMAHA          CLOUDY    71  60  68 S13       30.08F
LINCOLN        PTSUNNY   69  61  75 SE10      30.07F
FALLS CITY     PTSUNNY   73  63  70 SE10      30.09S
LAMONI         PTSUNNY   72  62  71 S8        30.13S
DES MOINES     CLOUDY    73  61  65 S12       30.12R

$$



USA.gov is the U.S. government's official web portal to all federal, state and local government web resources and services.